Voltar ao catálogo

FREGAT DEB

LostUNKNOWN
NORAD 47094·DEBRIS·🇷🇺 Russia

Lançado Jul 18, 2011 de Baikonur Cosmodrome

Loading…

Próximas Passagens (próximas 24 horas)

TLE

ObsoletoSource: Space-Track

Época: Dec 8, 2020, 17:25 UTC

1 47094U 11037NF  20343.72569793  .00221080  00000-0  14051+0 0  9999
2 47094  51.3806 240.3399 1334008 268.2795  76.5250 12.04771577  6762

Acompanhe FREGAT DEB em tempo real com AllMySat

Download on the App Store